GW2141 Weather Reports


time (UTC)temp
F
wind
direction
speed
knots
gust
knots
rain 1hr
in
rain 24hr
in
rain mn
in
humidity
%
barometer
mb
20260504204614 74 179 8.7 12.2 0.00 0.00 0.00 34 1012.0
20260504203614 73 181 8.7 12.2 0.00 0.00 0.00 32 1012.1
20260504202618 73 176 9.6 18.2 0.00 0.00 0.00 32 1012.1
20260504201714 73 184 7.8 9.6 0.00 0.00 0.00 33 1012.3
20260504200715 73 178 8.7 11.3 0.00 0.00 0.00 33 1012.3
20260504194815 72 180 7.0 8.7 0.00 0.00 0.00 34 1012.5
20260504193914 72 179 7.8 10.4 0.00 0.00 0.00 33 1012.8
20260504193013 72 179 7.8 9.6 0.00 0.00 0.00 34 1013.0
20260504192016 71 179 6.1 8.7 0.00 0.00 0.00 32 1013.1
20260504191016 71 188 8.7 12.2 0.00 0.00 0.00 33 1013.2
20260504190014 70 187 6.1 7.8 0.00 0.00 0.00 34 1013.3
20260504185017 70 172 7.0 12.2 0.00 0.00 0.00 34 1013.4
20260504184113 70 181 8.7 10.4 0.00 0.00 0.00 33 1013.6
20260504183114 69 166 2.6 4.3 0.00 0.00 0.00 33 1013.8
20260504182114 69 180 7.8 9.6 0.00 0.00 0.00 32 1013.8
20260504180113 68 180 8.7 11.3 0.00 0.00 0.00 34 1014.2
20260504175114 68 177 6.1 8.7 0.00 0.00 0.00 35 1014.3
20260504174114 68 199 7.0 9.6 0.00 0.00 0.00 34 1014.4
20260504173114 68 177 4.3 8.7 0.00 0.00 0.00 33 1014.4
20260504172115 68 177 5.2 7.8 0.00 0.00 0.00 34 1014.6
20260504171114 68 184 6.1 9.6 0.00 0.00 0.00 34 1014.6
20260504170115 68 180 6.1 7.8 0.00 0.00 0.00 34 1014.6
20260504160314 65 180 3.5 5.2 0.00 0.00 0.00 42 1015.5
20260504150416 63 166 4.3 6.1 0.00 0.00 0.00 46 1015.9
20260504140514 61 155 5.2 7.8 0.00 0.00 0.00 48 1016.1
20260504130713 59 170 6.1 9.6 0.00 0.00 0.00 54 1016.5
20260504081313 55 174 5.2 7.0 0.00 0.00 0.00 72 1017.1
20260504080413 55 156 3.5 6.1 0.00 0.00 0.00 74 1017.2
20260504045913 49 180 0.0 0.0 0.00 0.00 0.00 75 1017.4
20260504044928 50 180 0.0 0.0 0.00 0.00 0.00 74 1017.4
20260504043913 50 180 0.0 0.0 0.00 0.00 0.00 74 1017.5
20260504042913 50 180 0.0 0.9 0.00 0.00 0.00 76 1017.4
20260504041913 49 180 0.0 0.9 0.00 0.00 0.00 76 1017.3
20260504041012 49 180 0.0 0.9 0.00 0.00 0.00 76 1017.2
20260504040030 49 180 0.0 0.0 0.00 0.00 0.00 75 1017.0
20260504035023 50 180 0.0 0.0 0.00 0.00 0.00 74 1017.1
20260504034025 49 180 0.0 0.0 0.00 0.00 0.00 78 1016.9
20260504033122 49 180 0.0 0.0 0.00 0.00 0.00 79 1016.8
20260504032222 49 180 0.0 0.0 0.00 0.00 0.00 75 1016.8
20260504031223 49 180 0.0 0.0 0.00 0.00 0.00 75 1016.8
20260504030223 49 180 0.0 0.0 0.00 0.00 0.00 74 1016.8
20260504025322 49 180 0.0 0.0 0.00 0.00 0.00 73 1016.7
20260504024324 49 180 0.0 0.0 0.00 0.00 0.00 72 1016.7
20260504023324 49 180 0.0 0.0 0.00 0.00 0.00 72 1016.7
20260504021323 49 180 0.0 0.0 0.00 0.00 0.00 68 1016.8
20260504020422 49 180 0.0 0.0 0.00 0.00 0.00 65 1016.9
20260504015424 50 180 0.0 0.0 0.00 0.00 0.00 65 1016.7
20260504014438 50 180 0.0 0.0 0.00 0.00 0.00 61 1016.7
20260504012423 51 180 0.0 0.0 0.00 0.00 0.00 63 1016.4
20260504011521 51 180 0.0 0.9 0.00 0.00 0.00 66 1016.4
20260504005540 52 180 0.0 0.0 0.00 0.00 0.00 63 1016.3
20260504004523 52 180 0.0 0.0 0.00 0.00 0.00 58 1016.2
20260504000523 55 180 0.0 0.0 0.00 0.00 0.00 50 1016.0
20260503235622 56 180 0.0 0.0 0.00 0.00 0.00 46 1015.8
20260503233622 58 180 0.0 0.0 0.00 0.00 0.00 40 1015.5
20260503232623 59 180 0.0 0.0 0.00 0.00 0.00 37 1015.7
20260503231623 60 122 0.0 2.6 0.00 0.00 0.00 35 1015.8
20260503230622 60 180 0.0 0.0 0.00 0.00 0.00 33 1015.7
20260503224722 61 162 1.7 4.3 0.00 0.00 0.00 32 1015.7
20260503223722 62 305 0.0 0.9 0.00 0.00 0.00 32 1015.6
20260503222721 63 337 0.9 2.6 0.00 0.00 0.00 29 1015.6
20260503221725 63 90 0.9 2.6 0.00 0.00 0.00 30 1015.6
20260503220723 64 186 3.5 7.0 0.00 0.00 0.00 31 1015.6
20260503215722 64 140 1.7 3.5 0.00 0.00 0.00 31 1015.7
20260503214724 63 50 0.0 0.0 0.00 0.00 0.00 32 1015.6
20260503213723 63 186 1.7 3.5 0.00 0.00 0.00 32 1015.7
20260503212740 62 38 3.5 5.2 0.00 0.00 0.00 32 1015.7
20260503211824 61 223 1.7 6.1 0.00 0.00 0.00 32 1015.8
20260503210823 62 202 4.3 7.8 0.00 0.00 0.00 33 1015.6
20260503205823 62 183 4.3 10.4 0.00 0.00 0.00 32 1015.7